{"data":{"norad_id":56351,"epoch":"2026-05-24T23:19:36.193152Z","epoch_age_seconds":73486,"freshness":"FRESH","line1":"1 56351U 23058AL  26144.97194668 -.00000613  00000+0 -38391-4 0  9994","line2":"2 56351  97.4485 146.0240 0002344  84.8928 275.2567 15.05654404169675","mean_motion":15.05654404,"eccentricity":0.0002344,"inclination_deg":97.4485,"raan_deg":146.024,"arg_perigee_deg":84.8928,"mean_anomaly_deg":275.2567,"bstar":-3.8391e-5,"rev_number":16967,"period_min":95.639477171815,"perigee_km":547.87380767781,"apogee_km":551.1214827995,"semimajor_km":6927.6346452387,"source":"CELESTRAK","updated_at":"2026-05-25T13:38:18.007062Z"}}